Back to catalog

STARLINK-35198

AliveCommunicationsSSO
NORAD 65672·PAYLOAD·🇺🇸 United States

Launched Sep 19, 2025 from Vandenberg Space Force Base

Loading…

Next Passes (next 24 hours)

TLE

FreshSource: CelesTrak SupGP

Epoch: Sep 14, 2026, 14:57 UTC

1 65672C 25211W   26257.62340278  .00000131  00000+0  40547-5 0  2577
2 65672  97.2836 297.9295 0001204 102.8968 195.5300 15.33437429    12

Track STARLINK-35198 in real time with AllMySat

Download on the App Store